Theta_e
343 344 346 347 347 347 348 347 347 348 348 347 348 349 349 348 347 348 347 344 343 342 341 343 343 345 346 346 346 346 346 346 346 345 343 341 340 339 340 340 341 342 342 342 341 343 343 341 340 338 338 337 337 337 337 336 336 337 337 337 338 338 338 338 339 339 338 338 337 337 336 338 338 338 338 338 337 337 338 338 336 332 332 335 336
342 345 346 348 347 347 347 348 345 345 348 347 348 349 348 348 347 347 347 345 343 342 340 339 343 345 347 346 346 346 345 344 345 345 344 342 340 341 340 341 341 341 341 341 341 342 342 341 340 339 339 338 338 336 336 336 336 335 335 336 337 336 337 337 338 338 338 337 337 337 336 336 335 335 337 337 337 336 337 337 338 333 333 335 335
345 345 346 348 347 348 347 347 348 347 347 347 347 347 347 347 346 345 345 343 342 341 340 341 342 341 342 344 343 343 344 344 344 343 342 340 339 339 341 342 342 341 341 341 341 341 340 341 339 338 338 337 337 336 335 335 335 335 336 336 336 336 337 337 338 338 337 337 336 335 335 335 334 334 335 335 336 335 336 335 335 335 333 337 336
343 345 347 347 346 347 349 347 347 347 347 347 347 347 347 346 345 345 344 343 342 341 342 342 343 343 344 343 342 342 342 342 342 341 340 340 339 339 339 340 339 339 339 339 341 341 341 341 339 338 337 337 337 336 335 334 334 334 335 336 336 337 337 338 338 337 337 337 337 336 334 333 333 334 335 335 335 337 338 337 334 335 337 336 336
343 345 347 348 348 348 348 348 347 347 347 347 347 347 347 346 345 344 343 342 341 340 343 342 342 340 340 340 341 341 341 341 341 340 339 338 338 338 339 337 340 339 339 339 340 340 340 340 340 340 338 337 336 336 335 334 333 334 335 336 337 337 338 338 338 337 336 337 339 335 331 333 333 335 335 335 338 337 337 337 336 336 336 335 336
344 345 347 347 347 346 346 347 346 347 347 347 347 346 345 344 344 343 341 340 339 339 338 340 341 340 338 337 341 340 339 338 337 339 339 338 337 338 338 340 339 339 339 341 341 339 340 340 339 339 339 337 336 335 334 334 335 335 334 335 336 336 338 338 338 337 337 337 335 331 330 331 331 331 335 336 338 337 336 337 336 336 336 335 336
344 346 346 346 346 346 345 346 345 346 345 347 347 346 344 344 343 342 341 340 339 339 341 343 342 340 339 340 341 341 341 342 342 337 336 337 338 339 339 339 339 338 338 338 339 339 338 338 338 338 337 336 335 334 334 333 333 334 335 335 334 335 336 337 336 336 337 335 333 332 331 331 331 332 336 338 338 337 336 337 337 337 336 337 337
345 345 346 346 346 345 344 346 345 345 344 343 343 343 344 343 342 342 340 338 338 340 341 344 342 341 341 340 341 342 343 343 340 338 337 337 337 337 337 338 338 337 338 337 337 338 338 338 338 336 337 335 334 334 333 334 334 334 334 333 333 333 333 334 334 335 337 333 335 335 333 332 332 333 337 338 337 337 337 336 336 338 338 337 336
344 345 345 345 345 343 343 344 343 343 342 343 342 341 340 340 341 341 339 337 338 341 343 345 343 342 341 339 339 341 343 341 339 337 336 338 337 337 336 337 337 337 337 337 337 337 338 338 337 338 337 336 335 334 334 333 334 333 333 332 331 330 330 330 331 333 332 334 335 335 336 334 334 333 337 337 338 338 338 336 337 337 337 335 335
343 344 344 344 346 341 342 342 343 341 341 342 341 340 340 340 340 340 339 339 339 343 346 346 345 342 342 341 338 337 341 340 338 337 336 335 335 336 336 336 336 337 337 337 338 337 337 337 337 336 337 336 335 334 334 334 333 332 331 331 330 330 329 328 330 329 328 332 334 335 336 338 336 335 336 338 338 338 336 335 336 336 336 336 336
343 344 345 345 346 340 343 344 344 343 341 341 339 339 339 339 339 339 339 338 339 347 347 346 345 344 343 341 340 341 341 338 337 336 336 337 337 336 336 336 336 337 336 337 338 338 338 337 337 337 337 336 335 333 333 333 332 332 331 331 331 331 331 331 330 329 330 329 332 334 336 337 337 338 338 336 337 337 336 336 335 335 336 336 336
342 344 345 344 344 339 342 342 342 341 340 339 338 338 339 338 338 339 338 338 338 346 346 346 345 344 344 343 342 341 340 337 337 336 336 336 336 336 336 336 336 336 336 336 336 337 337 337 336 336 335 335 334 333 333 332 332 332 330 330 330 330 330 331 328 329 330 330 330 333 335 335 336 337 337 336 336 336 336 335 336 336 336 336 336
342 343 344 344 344 340 341 342 341 341 340 339 338 338 338 338 338 338 338 338 337 345 346 345 344 344 344 343 341 340 339 339 339 338 337 337 337 336 336 336 336 336 335 336 336 336 336 336 336 335 335 334 333 333 333 333 333 332 330 329 329 329 328 329 329 329 329 330 330 332 333 337 338 337 337 336 334 337 337 337 336 336 336 336 335
341 342 343 343 343 343 338 339 340 341 343 342 340 339 337 337 338 339 338 338 338 343 345 344 344 344 344 343 341 340 339 339 338 337 337 337 336 336 337 335 335 335 336 336 335 335 335 335 335 335 334 334 334 333 333 333 334 333 331 329 328 329 328 328 329 329 329 330 330 330 332 335 337 336 337 337 335 337 337 336 336 336 336 336 336
341 343 344 343 343 342 340 336 339 339 341 342 342 341 337 337 338 339 341 341 339 342 344 343 343 343 343 343 341 340 339 339 337 337 337 337 337 336 336 336 337 336 336 336 335 335 334 335 334 335 335 334 334 334 334 333 334 333 331 329 328 328 324 327 327 329 328 329 329 330 332 334 335 337 336 336 337 337 337 336 335 335 335 335 335
342 342 343 343 342 342 340 340 335 335 337 337 339 340 340 341 343 341 341 341 340 340 341 343 343 343 343 342 341 340 339 338 338 337 339 337 336 336 337 336 335 335 335 335 335 335 334 335 335 335 334 334 333 333 333 332 332 331 330 329 328 326 324 325 328 327 327 328 329 330 330 333 334 336 337 336 337 335 336 336 335 335 335 335 336
342 343 343 342 343 341 341 338 337 331 331 332 334 336 340 341 343 342 342 341 341 340 339 340 342 342 342 342 341 340 339 338 337 338 338 336 336 336 336 335 336 335 335 335 334 335 335 335 335 334 334 334 333 333 332 331 331 330 329 328 327 325 324 322 327 327 327 328 329 329 331 330 333 336 336 336 336 335 334 335 335 335 335 335 335
342 342 342 341 342 340 340 340 339 338 338 334 331 335 339 341 341 341 341 341 341 343 343 343 342 342 342 342 341 340 339 338 339 339 339 337 336 336 337 336 335 335 335 334 334 334 335 335 335 335 334 334 334 333 333 332 332 331 329 327 326 324 324 321 328 328 326 328 327 329 330 330 334 335 335 335 335 335 334 334 335 336 335 335 333
341 341 341 341 340 340 339 339 338 339 338 334 336 342 334 337 338 338 339 340 340 340 340 339 340 340 339 339 338 337 336 337 337 337 336 335 333 332 335 336 335 334 335 334 333 334 334 333 333 333 333 333 332 332 332 332 331 330 328 326 322 322 318 324 328 327 326 326 327 328 330 330 334 334 333 335 334 333 333 334 335 335 335 334 332
339 339 340 341 340 339 339 338 338 337 337 336 336 337 335 332 334 335 336 337 337 337 336 335 333 333 333 333 332 335 333 335 329 335 332 335 334 332 332 336 334 334 334 334 334 333 333 333 334 333 332 331 330 330 330 330 329 327 326 324 323 318 327 327 329 326 326 326 328 329 328 332 335 334 332 333 334 333 333 334 335 334 334 333 331
336 337 339 340 340 339 338 337 337 337 336 337 337 338 342 330 331 331 331 333 334 333 331 327 326 325 328 326 330 339 339 338 338 338 329 338 325 326 331 335 334 333 333 334 334 333 333 334 334 334 331 328 324 323 323 326 326 325 323 322 319 327 327 327 328 326 327 327 328 329 329 331 334 336 332 333 333 332 333 334 334 334 333 332 330
334 335 338 340 339 339 338 337 336 336 336 337 338 338 340 333 337 339 340 336 331 329 336 341 338 340 325 335 339 338 337 337 337 335 337 336 332 323 328 334 334 334 334 333 333 333 333 333 333 331 329 326 321 332 329 323 321 322 321 318 329 327 327 326 327 327 328 328 327 328 328 331 333 335 334 333 332 331 333 334 334 334 332 331 329
331 334 336 339 338 338 338 336 336 335 336 336 338 337 337 336 336 336 340 334 338 338 338 338 339 339 338 337 336 337 337 337 335 335 335 321 327 322 327 329 329 329 330 329 328 328 329 329 327 327 324 321 333 331 330 330 332 318 318 331 329 328 327 327 326 327 327 326 327 326 331 330 331 334 334 333 331 333 333 333 333 332 331 330 328
330 333 333 339 338 337 338 337 336 336 335 335 336 335 334 335 335 335 335 337 339 338 338 338 338 338 338 335 335 336 335 335 328 326 328 334 330 322 323 324 324 324 323 329 325 323 322 322 321 320 326 327 330 329 328 329 329 330 330 329 329 329 328 328 327 327 327 327 327 325 329 329 329 332 333 333 333 332 333 333 332 331 330 329 328
331 333 334 337 338 337 337 337 337 336 336 335 335 334 336 335 336 335 335 334 336 336 336 337 337 337 337 335 335 334 334 334 333 333 334 333 333 333 332 333 333 333 324 331 331 332 330 332 331 328 329 329 329 329 330 329 329 329 329 328 328 329 329 329 327 327 327 326 329 322 326 329 329 329 330 333 332 332 333 332 331 331 329 328 327
332 331 332 335 338 337 337 337 337 337 336 336 335 335 335 333 333 331 334 334 335 334 334 335 335 336 336 334 334 332 332 332 332 332 332 332 331 331 331 331 331 331 329 329 329 330 331 330 330 328 328 328 328 329 330 328 328 327 328 329 328 329 328 328 328 328 328 327 327 317 322 327 328 327 328 330 332 332 332 331 331 331 328 327 326
331 332 333 335 337 337 338 338 336 336 337 336 336 335 334 334 333 332 331 331 333 332 332 333 333 334 334 333 332 332 331 331 330 330 330 330 330 330 330 329 329 329 329 328 328 328 329 328 328 329 328 327 327 328 329 330 330 328 328 328 329 328 328 327 329 329 329 328 327 316 320 327 329 326 327 328 328 331 332 331 330 330 328 326 325
331 331 333 333 336 337 338 337 336 336 336 337 335 334 335 334 333 332 331 329 330 331 332 333 332 330 333 332 331 331 330 330 330 330 330 329 329 329 329 328 328 328 328 328 327 327 327 328 329 329 328 328 326 327 328 329 329 329 328 328 329 328 328 327 328 329 329 329 328 324 317 323 326 326 327 328 326 328 330 331 330 330 328 326 325
330 331 333 333 335 337 337 336 335 335 336 335 333 334 334 334 333 332 331 329 330 330 330 332 331 331 331 332 332 330 329 329 329 329 329 327 328 328 327 327 327 327 327 327 326 327 327 328 328 327 328 327 327 327 327 328 328 328 327 327 328 328 328 327 327 328 329 328 327 324 317 321 325 326 325 326 325 325 330 331 330 330 328 326 324
331 332 332 334 334 336 336 335 335 335 336 335 334 333 333 333 332 332 331 330 330 330 331 330 331 331 330 331 332 331 329 328 328 329 327 327 327 327 326 326 326 327 326 326 326 325 326 327 327 327 326 326 326 327 327 326 327 327 327 326 328 328 328 327 328 328 329 328 328 327 316 319 323 324 325 325 325 324 328 332 331 330 328 326 325
331 331 332 333 334 334 335 336 336 335 336 335 334 333 333 332 332 332 332 330 330 330 330 329 330 330 330 331 331 331 330 329 328 328 327 327 327 325 325 326 325 326 326 326 327 325 326 326 326 325 326 326 326 328 327 326 327 327 327 327 328 329 329 329 329 329 328 329 328 327 329 316 320 322 324 324 324 324 325 330 332 330 329 326 325
330 331 332 334 334 334 334 335 336 335 335 335 335 333 333 333 333 332 331 331 331 330 330 329 328 330 331 330 331 331 330 329 329 328 327 326 326 325 325 325 325 326 326 326 327 326 325 326 326 328 329 328 327 327 328 326 326 326 327 328 329 329 329 329 329 328 329 329 328 327 326 327 316 317 320 321 323 323 326 327 330 331 328 327 325
332 332 333 333 333 334 333 335 336 335 334 334 333 333 333 333 332 332 332 331 330 330 329 329 329 330 330 330 330 330 330 329 329 328 327 326 325 325 325 325 328 329 328 326 326 325 324 324 326 328 329 329 328 328 329 327 326 326 326 327 328 328 329 329 329 328 328 329 328 327 326 326 327 316 315 317 321 323 325 326 328 329 328 327 325
331 332 333 332 333 334 335 334 335 335 334 334 333 333 333 332 332 332 331 331 330 330 329 330 329 329 330 330 330 330 329 329 329 329 328 326 326 326 327 327 329 330 329 327 324 326 326 327 328 329 326 328 327 328 327 327 327 326 326 327 328 328 329 329 328 328 328 328 328 328 327 325 325 326 326 315 316 320 324 325 327 328 327 326 325
331 331 331 332 333 333 334 334 334 334 334 333 333 333 332 332 331 331 331 331 330 330 330 329 330 330 330 329 330 329 329 329 329 328 328 328 327 327 327 328 329 330 328 328 328 328 328 328 328 328 328 328 327 328 328 326 326 325 325 326 327 329 329 328 328 328 328 328 328 328 328 326 325 326 326 325 314 313 319 324 327 327 326 326 324
331 331 332 332 332 332 333 334 335 335 334 334 334 334 332 331 331 326 330 330 330 330 329 329 329 329 329 329 330 330 330 330 329 329 328 328 327 326 327 328 330 330 329 329 329 327 327 328 329 329 326 327 327 327 327 326 325 325 325 327 327 328 328 328 328 328 328 328 327 328 328 327 326 325 322 325 324 323 314 320 325 327 327 325 325
331 332 332 332 331 331 331 332 333 334 334 334 333 332 332 331 330 330 329 330 329 329 329 330 329 329 329 329 330 329 330 330 329 329 327 327 326 326 327 329 331 330 329 329 327 328 328 328 328 327 326 325 326 327 327 326 326 325 325 327 328 328 328 328 328 328 329 328 328 327 327 326 326 317 322 323 324 325 316 314 320 320 321 326 325
331 332 332 332 331 332 332 331 332 333 334 335 334 333 332 331 331 330 328 329 329 329 329 329 328 328 328 328 330 331 330 330 330 329 328 327 327 327 328 330 331 330 328 328 326 327 328 327 325 327 326 325 324 325 325 326 327 326 324 326 327 327 327 328 328 327 327 327 327 327 327 326 325 324 323 323 324 324 325 318 315 315 313 317 324
329 330 331 332 332 332 332 331 330 332 332 332 334 333 333 332 332 330 329 328 328 328 329 328 328 328 329 330 331 331 330 330 330 329 328 326 326 327 328 329 329 328 328 327 326 326 326 326 325 325 326 325 325 326 327 327 325 325 325 325 326 327 328 328 328 328 327 327 327 326 327 325 324 324 323 323 323 323 323 324 323 322 322 313 321
328 328 329 330 331 331 332 332 331 331 332 331 332 331 331 330 329 330 329 327 327 326 327 328 328 328 329 330 331 331 330 329 330 329 328 327 327 327 328 329 329 327 326 326 325 325 325 325 325 324 325 325 325 324 325 324 323 323 323 325 326 327 327 327 328 327 327 327 327 327 325 325 324 323 323 322 322 322 322 323 323 323 323 319 314
328 328 327 328 329 329 329 329 331 331 331 329 329 329 328 328 329 327 326 327 326 327 326 327 327 328 329 330 331 330 331 330 329 329 328 325 328 328 329 329 328 327 326 325 326 327 327 326 325 325 323 323 324 324 323 323 322 321 323 324 324 326 327 327 326 326 326 327 327 326 325 324 323 322 323 322 321 321 321 322 322 323 322 323 319
327 327 327 327 328 328 328 329 330 330 330 330 330 329 330 329 327 327 327 327 326 325 325 326 326 327 328 328 329 330 330 329 328 329 328 329 328 328 328 328 328 327 326 326 326 323 325 325 324 323 323 321 322 325 323 321 320 317 317 318 320 322 324 325 324 323 325 326 326 325 325 323 322 322 322 321 320 320 320 320 321 322 322 322 322
328 327 328 328 328 327 328 328 329 329 330 331 330 329 330 330 330 329 328 327 329 329 328 328 328 327 327 327 328 328 329 329 329 328 329 329 329 328 328 328 328 327 325 325 326 325 325 324 324 322 322 322 321 323 322 322 318 320 319 315 313 314 320 322 323 322 323 324 324 324 324 323 322 323 322 321 319 319 319 319 319 319 320 320 321
327 328 328 328 328 327 328 328 328 329 329 330 329 332 332 332 332 331 331 329 328 328 329 328 328 327 326 327 327 328 328 328 329 329 328 329 328 328 329 328 328 328 326 325 325 324 324 324 324 323 323 321 321 319 321 322 322 320 313 314 314 313 309 314 318 321 323 322 322 322 323 322 322 321 321 320 319 319 318 318 317 317 318 318 319
326 327 328 328 328 328 328 328 328 328 328 328 328 330 330 330 330 330 330 329 329 327 326 325 326 326 326 326 326 328 328 328 329 329 328 328 329 328 328 328 328 328 327 325 325 325 326 326 325 323 322 320 321 322 322 321 322 324 319 314 313 311 312 315 317 317 320 319 320 321 321 321 321 319 318 319 319 319 317 317 316 316 316 316 316
326 328 329 329 329 329 329 329 329 328 328 329 329 328 328 327 326 325 323 323 322 323 322 322 324 323 324 327 328 328 328 328 329 329 328 327 327 327 328 327 327 327 327 326 325 326 326 326 325 324 323 323 322 322 322 322 321 322 323 322 318 313 314 316 313 311 317 319 321 320 320 320 319 319 318 317 318 317 317 315 315 314 313 313 312
326 328 329 329 329 330 330 330 329 329 329 328 329 327 327 327 326 326 325 324 323 324 326 326 326 326 327 327 327 328 328 327 328 328 328 327 327 327 327 327 327 327 327 326 324 325 326 326 326 325 324 324 323 319 320 322 321 320 321 321 322 322 322 317 313 315 310 315 315 317 318 319 318 317 317 316 316 316 317 315 313 312 312 311 310
325 327 328 328 328 329 329 329 329 328 329 329 328 327 326 326 326 326 325 325 325 325 326 326 327 327 327 326 327 327 327 328 327 328 328 328 327 327 327 327 326 327 325 325 325 326 326 327 325 325 324 323 323 320 320 321 319 319 319 318 319 321 321 320 320 315 313 310 314 314 313 312 314 315 316 316 315 315 315 316 314 313 310 308 307
324 326 327 328 329 329 329 330 329 329 329 328 327 327 326 327 326 326 325 325 327 327 328 328 327 327 326 327 327 327 327 327 327 327 328 328 326 326 327 327 326 326 325 325 326 326 325 325 324 323 323 323 323 322 321 321 321 320 320 318 318 318 319 319 319 319 313 311 311 313 314 315 312 313 314 314 315 316 315 315 315 314 311 308 306
322 325 326 327 328 329 328 328 328 329 328 328 327 327 326 326 326 326 325 326 326 326 327 327 326 327 325 326 327 326 326 325 326 327 327 328 328 327 326 327 326 326 324 325 325 325 325 325 325 324 324 322 323 322 321 322 322 322 321 321 318 317 317 317 317 316 314 313 309 312 314 314 313 315 315 315 314 315 316 315 314 313 312 311 308
319 321 323 325 327 327 327 327 328 329 328 328 327 326 326 326 326 326 326 326 326 326 325 326 326 325 324 325 325 325 326 326 326 326 327 328 328 327 326 327 327 326 325 325 324 324 324 324 324 325 324 322 322 322 320 321 322 321 321 321 320 320 316 314 315 315 314 314 312 311 313 315 315 315 319 319 317 317 316 315 314 314 313 312 311
Wind_Speed
9 10 9 6 3 9 11 12 11 11 13 12 12 11 11 11 12 13 13 12 12 12 10 11 10 11 11 10 11 12 13 12 13 13 13 13 12 12 14 14 14 14 14 14 16 18 17 18 17 17 17 17 17 18 17 17 17 17 17 17 18 18 17 17 16 16 15 15 16 17 15 15 16 16 16 15 15 12 8 10 9 12 12 12 14
12 10 9 8 6 10 11 12 15 8 13 13 12 12 12 12 12 13 12 12 12 12 11 9 11 12 12 12 12 12 12 12 13 14 14 14 12 13 14 15 14 14 14 14 15 16 16 18 17 17 18 18 17 17 17 17 17 17 17 17 17 17 17 16 16 15 14 12 11 12 16 16 15 15 15 15 15 14 11 13 12 10 9 12 11
12 11 9 9 4 6 10 13 13 12 12 13 13 12 12 12 12 11 12 12 11 10 10 10 9 9 9 10 10 11 12 12 13 14 14 13 11 12 15 15 14 14 14 14 14 14 16 17 17 17 18 17 16 16 16 17 17 16 16 17 17 16 16 15 14 13 12 11 8 11 16 15 15 15 16 15 13 13 10 13 12 10 10 15 13
13 11 10 9 5 3 8 11 12 12 12 13 13 12 12 11 11 10 11 11 11 10 10 10 10 9 8 8 9 11 10 11 11 12 12 12 11 11 13 14 14 14 14 14 15 15 16 17 18 17 17 17 16 16 15 17 17 17 16 16 16 15 15 14 13 12 11 9 9 5 8 10 11 13 13 13 14 14 13 14 12 13 14 11 12
13 11 10 10 10 7 6 11 11 12 12 12 12 12 12 12 11 11 11 10 9 10 12 10 9 9 8 9 10 10 10 10 11 12 12 12 11 12 14 13 14 15 15 15 15 15 16 16 17 17 17 16 16 16 16 16 16 16 16 16 15 14 14 13 12 11 9 8 8 7 9 9 9 12 12 12 14 14 13 14 13 13 12 11 11
12 11 11 10 10 9 6 10 11 11 11 11 12 12 11 11 11 11 11 10 9 9 9 10 10 9 8 8 11 9 9 10 9 11 13 12 11 12 13 14 14 14 14 15 15 15 15 15 16 16 16 16 15 15 15 16 15 15 15 15 15 14 13 12 11 10 7 2 5 8 9 8 8 8 11 12 14 12 12 11 11 10 10 11 11
13 10 10 10 9 9 7 8 11 11 10 11 10 11 11 10 10 11 10 10 10 9 9 11 10 9 9 10 10 9 10 11 12 12 10 10 11 11 12 13 13 13 14 14 14 14 14 14 14 15 15 15 15 14 14 15 14 14 14 14 13 13 12 10 9 8 8 6 7 8 8 8 7 6 11 12 11 11 10 10 10 11 12 11 11
10 9 10 10 9 10 8 8 9 13 11 9 8 8 9 10 10 10 10 8 7 9 9 10 11 10 9 10 10 12 12 12 12 11 11 12 11 11 12 12 13 12 12 13 14 14 13 14 13 14 14 14 13 13 13 14 13 13 12 12 12 12 11 10 8 6 6 8 8 6 6 7 7 6 11 11 11 11 11 10 10 11 11 11 7
10 10 10 9 10 11 8 7 8 10 12 10 9 8 7 7 8 10 9 7 6 9 9 9 11 10 9 9 9 11 12 11 11 10 9 11 10 11 12 11 12 12 12 12 12 13 13 13 13 13 14 13 13 12 12 12 12 12 12 12 12 11 10 8 7 8 7 7 8 7 7 6 6 4 10 9 11 12 13 11 9 10 10 9 9
10 11 10 9 10 10 9 8 9 10 11 11 10 8 8 7 7 8 9 7 6 9 10 9 9 11 10 10 10 9 10 10 10 10 11 10 10 10 10 11 11 12 12 12 12 12 12 12 13 13 13 13 12 11 11 11 11 12 12 12 12 11 9 7 3 8 7 7 7 7 7 9 6 7 8 10 10 12 10 8 9 8 7 8 10
11 10 10 9 12 9 9 8 8 8 11 10 9 9 10 7 6 6 9 7 7 9 9 8 9 9 12 11 11 11 10 10 9 9 10 11 11 10 10 10 10 10 11 11 11 12 12 12 12 12 12 11 11 11 11 11 11 11 12 12 11 10 9 7 4 7 7 7 7 6 6 5 6 5 9 8 10 11 8 9 7 8 8 9 11
10 10 10 9 10 9 9 9 8 10 10 9 8 7 9 7 6 8 9 8 7 9 9 10 9 9 11 12 11 11 10 9 9 9 9 10 10 10 9 9 9 10 10 10 10 11 11 11 12 12 11 11 10 10 10 10 10 10 10 11 11 10 9 8 6 5 6 6 7 6 7 7 7 8 10 9 9 10 9 8 8 9 9 10 11
10 9 10 10 11 8 9 8 8 9 10 10 8 8 7 8 9 7 7 9 6 10 9 10 9 9 11 11 11 10 10 10 10 10 9 10 10 9 10 9 9 9 9 10 10 10 10 11 11 11 11 10 10 10 9 9 9 9 10 9 8 8 6 8 6 6 6 6 5 5 6 7 7 10 9 9 8 10 9 10 9 9 9 10 11
11 10 10 10 9 8 8 7 8 7 6 9 10 10 9 7 8 10 8 7 7 10 9 9 8 10 11 11 10 10 10 10 10 9 9 9 9 9 9 9 9 9 9 9 9 9 10 10 11 11 10 10 10 10 10 9 9 8 9 8 7 5 5 2 6 6 6 6 6 6 5 6 8 10 9 9 7 10 9 8 8 8 9 10 11
11 11 10 10 10 10 7 7 6 5 6 8 8 10 10 9 8 9 8 6 4 8 8 8 9 9 10 11 11 10 10 10 9 9 9 8 8 9 8 9 8 8 8 8 8 9 9 10 10 10 10 10 10 10 10 9 9 8 7 7 6 6 9 5 4 5 5 5 5 5 5 5 12 10 8 6 8 9 8 8 8 8 9 10 11
11 11 11 10 10 9 9 7 6 6 7 7 6 7 5 5 9 9 8 7 6 6 7 8 7 8 9 9 10 10 10 9 9 8 7 8 8 8 8 8 8 8 8 8 8 8 9 9 10 10 10 9 10 10 10 10 9 8 7 6 5 5 5 8 5 5 4 5 4 5 4 5 12 11 7 7 9 7 7 7 7 7 9 10 12
10 10 11 11 11 10 9 9 7 7 8 7 6 5 5 5 8 8 7 6 5 6 5 7 8 8 9 8 8 9 10 10 9 7 6 8 8 7 7 8 8 7 7 7 8 8 8 9 9 10 10 10 10 10 9 9 8 7 7 4 4 3 4 8 5 5 5 5 3 4 3 6 11 11 8 7 6 7 7 7 7 8 9 11 12
10 11 11 11 11 10 9 9 9 9 8 6 6 6 4 7 8 7 6 5 3 4 7 8 9 7 6 8 7 7 9 9 7 6 8 7 6 5 6 7 7 7 7 7 8 8 8 9 9 9 9 10 10 9 8 7 6 6 5 4 3 3 2 7 5 4 4 3 3 3 4 10 12 10 7 6 5 6 6 7 7 8 9 11 11
10 12 10 11 11 10 10 9 10 9 9 8 7 6 7 9 8 7 6 5 7 7 8 8 8 7 7 6 7 7 7 7 7 7 8 7 7 7 5 5 7 6 7 7 7 7 8 8 8 9 9 8 8 8 7 6 6 5 5 3 1 1 4 5 5 4 4 5 4 3 6 10 11 9 6 5 4 6 6 7 7 8 9 11 10
10 11 11 10 11 10 10 9 9 9 9 8 8 9 7 9 8 8 7 7 8 8 8 9 8 8 8 9 8 8 7 6 7 7 6 7 5 4 5 4 6 6 5 6 6 7 7 8 8 8 8 7 6 6 6 5 5 4 3 2 2 7 1 5 2 4 4 4 4 3 8 10 11 9 5 4 4 5 5 6 7 9 10 10 10
9 12 11 10 11 11 12 10 10 10 9 8 8 8 7 9 7 7 8 8 8 9 9 9 9 7 7 7 7 7 7 6 6 5 5 4 5 5 4 4 5 5 4 5 6 6 6 7 8 7 7 5 4 5 6 4 3 2 2 1 6 2 5 5 3 3 3 4 4 4 8 9 10 10 7 3 3 4 5 5 7 9 10 10 10
11 11 12 11 11 11 12 11 10 11 10 8 7 7 7 9 9 8 7 7 7 8 8 7 7 6 7 6 5 5 4 5 4 4 5 5 5 5 4 6 7 6 6 6 6 7 7 7 7 6 5 4 2 1 3 4 4 2 1 4 4 4 4 4 4 3 3 3 4 5 6 9 10 8 5 2 2 3 5 5 8 9 9 9 9
11 11 11 13 11 10 11 11 11 11 11 10 7 7 9 8 9 9 7 6 7 8 7 6 6 6 6 5 4 4 3 3 3 2 2 6 4 5 6 7 7 7 5 5 5 6 6 6 5 4 3 2 1 0 0 1 2 6 6 4 3 3 3 4 3 4 3 4 4 4 5 8 9 7 4 2 2 4 4 6 7 7 7 8 9
12 11 11 10 12 11 12 12 12 12 11 9 9 8 8 8 7 7 7 8 8 7 7 6 6 6 6 5 4 4 4 3 4 5 5 5 3 4 5 6 6 5 3 1 2 4 2 3 3 1 2 1 0 1 1 2 2 1 2 2 2 2 3 3 3 3 3 1 2 2 5 6 8 7 5 3 2 4 5 6 6 7 7 7 8
10 11 10 11 14 13 12 12 12 11 11 9 9 9 8 7 7 7 6 7 8 7 7 7 6 6 6 6 5 4 4 4 4 4 4 4 4 4 3 4 3 2 1 2 1 0 2 0 1 2 1 1 2 1 2 2 2 2 2 2 2 3 3 2 3 3 3 3 4 2 5 5 6 7 6 4 2 3 5 6 5 6 7 7 8
9 11 12 11 13 14 14 12 13 12 11 10 10 8 7 8 7 7 7 7 7 7 7 7 7 6 5 6 5 5 5 4 4 4 4 4 4 3 3 2 3 3 1 2 1 1 1 1 2 2 2 1 2 2 2 3 3 3 3 2 3 3 4 3 3 4 4 4 1 0 5 7 6 6 7 7 2 4 6 5 6 6 6 6 8
11 11 11 11 12 14 15 13 12 11 12 11 9 9 8 7 7 7 7 7 7 7 7 7 7 7 7 6 6 5 5 5 5 5 5 4 4 4 3 3 3 3 2 2 2 2 2 2 2 2 2 2 3 3 3 3 3 4 3 3 3 4 4 4 4 4 4 3 1 3 4 6 7 6 7 7 6 3 6 6 5 6 5 5 6
11 12 12 11 10 14 15 15 13 13 11 8 10 9 8 8 8 6 6 7 7 7 7 7 7 7 8 7 7 6 6 6 6 5 5 4 4 4 3 3 3 3 2 2 3 3 3 2 2 3 3 3 4 4 4 4 4 4 4 4 3 4 4 4 3 4 4 4 4 5 4 4 5 7 6 7 8 7 6 6 7 7 5 5 7
13 13 11 12 13 12 15 15 14 15 13 11 10 8 7 7 7 7 8 7 7 7 7 7 8 7 7 8 8 7 7 6 6 6 5 5 4 4 4 4 3 3 3 3 3 3 3 3 3 4 4 4 4 5 4 4 4 4 4 4 5 5 5 5 4 4 4 5 5 2 5 4 6 5 6 7 8 9 8 7 8 8 7 7 7
14 13 13 12 13 14 15 15 14 13 13 12 10 9 8 8 8 8 8 7 8 7 7 7 7 7 7 8 8 8 7 7 7 6 6 6 5 5 5 5 4 4 4 4 4 4 4 3 4 4 4 5 5 4 4 4 5 5 4 4 4 5 5 5 5 5 5 5 5 4 7 6 4 5 5 5 7 8 10 9 8 10 9 8 7
14 14 13 12 11 12 14 14 15 13 13 13 12 9 10 10 9 9 8 8 8 8 7 7 7 7 8 8 9 9 8 7 7 7 6 6 5 5 5 5 5 5 4 4 3 4 4 4 4 5 4 5 4 3 3 4 5 5 5 5 5 5 6 6 6 6 6 5 6 6 4 7 5 5 5 5 6 8 9 10 9 11 10 8 10
15 15 13 12 13 15 15 15 14 14 14 14 9 10 11 11 10 9 9 9 9 8 8 8 8 8 8 8 8 9 8 8 8 7 7 6 6 5 5 5 5 4 5 5 4 4 4 4 4 5 5 4 4 4 4 5 5 5 4 5 5 5 5 6 6 6 6 6 6 6 5 4 7 7 5 5 5 6 9 9 10 10 11 10 9
13 15 14 14 15 15 14 15 15 14 15 16 13 11 11 10 10 10 9 8 9 9 8 8 9 8 8 9 9 10 9 9 8 8 7 6 6 6 6 6 6 5 5 5 5 5 5 4 5 5 5 5 5 5 4 5 6 6 5 5 4 5 6 6 6 6 7 6 6 7 7 5 5 8 7 6 5 6 8 8 9 11 11 11 11
12 12 15 16 13 11 11 12 13 15 14 14 13 12 12 10 9 9 9 10 9 9 9 9 8 8 9 10 10 10 9 9 9 8 8 7 7 7 7 7 7 7 6 5 5 5 5 5 5 5 5 5 6 6 5 6 5 5 5 5 5 5 6 6 7 7 7 7 7 7 7 6 5 5 4 7 8 6 7 6 8 11 12 12 12
11 13 16 17 16 13 10 10 11 15 12 14 13 13 11 10 9 9 9 10 9 9 9 9 9 9 9 9 10 10 11 10 9 8 8 8 8 7 8 7 7 7 6 6 6 6 7 6 5 5 5 6 6 6 6 6 6 6 6 5 5 5 6 7 7 7 8 8 8 7 6 6 5 5 5 5 7 8 5 4 6 11 13 13 13
15 14 14 14 15 15 12 13 13 14 16 14 14 12 11 11 9 9 9 10 9 9 9 9 9 8 8 8 10 10 10 11 10 9 8 8 8 8 7 7 8 8 6 6 7 8 7 7 7 6 5 6 6 7 6 6 6 6 6 5 5 5 6 7 7 8 8 7 7 7 6 6 6 6 6 6 6 5 6 3 3 7 12 14 14
15 14 14 14 16 16 15 17 15 15 16 15 13 12 12 12 11 10 11 10 10 10 9 9 9 9 8 8 9 10 11 11 10 10 9 9 9 8 7 8 8 6 6 6 7 8 8 8 7 7 7 7 7 7 6 6 5 6 6 6 6 6 6 7 7 8 7 7 7 6 6 6 6 4 5 6 6 5 6 7 6 6 6 9 14
14 15 14 15 16 16 16 16 15 15 14 14 14 13 13 11 11 10 11 11 12 10 9 9 9 8 9 9 10 10 10 11 11 10 9 9 8 8 8 8 7 6 6 6 8 8 8 9 9 7 7 7 7 6 6 5 4 5 6 7 7 6 7 7 7 7 7 7 7 7 6 6 6 7 7 7 7 7 6 7 8 7 8 8 8
12 15 14 14 12 12 12 15 15 16 15 15 12 12 12 13 12 11 12 12 10 10 10 9 9 9 9 10 11 11 11 11 12 11 9 9 9 8 8 8 7 6 6 7 8 9 10 9 9 8 7 8 7 7 6 5 5 6 7 8 8 8 8 8 7 7 7 7 8 6 5 6 7 8 8 7 7 7 7 6 6 7 8 10 9
13 13 15 14 14 13 12 12 15 15 14 13 11 12 12 13 12 10 12 11 10 9 10 10 9 10 10 11 11 11 11 11 12 11 10 10 9 8 8 7 6 7 7 8 9 9 10 10 11 11 10 9 9 8 7 7 7 9 9 8 9 9 10 9 8 8 7 7 7 6 6 6 7 8 8 7 7 7 8 8 7 7 7 8 11
14 14 14 15 15 14 13 15 13 15 14 13 13 14 13 12 10 12 12 11 10 10 10 10 11 10 12 12 12 11 11 11 11 9 9 9 9 8 8 7 7 7 9 10 9 10 9 8 8 7 9 9 8 7 7 6 7 8 8 10 9 8 10 9 9 8 8 7 6 6 6 6 7 8 7 7 8 7 8 8 8 8 8 7 7
15 15 16 17 16 16 16 14 11 14 16 15 14 13 14 14 13 13 13 11 11 10 11 11 12 11 11 12 11 12 11 12 11 10 9 9 9 8 8 8 8 9 11 11 11 10 10 10 9 9 9 9 8 6 5 4 6 6 6 7 7 7 9 8 7 8 8 6 6 6 6 7 8 7 6 7 7 8 8 8 7 7 7 7 7
16 18 17 16 16 16 15 14 13 13 14 14 14 14 14 13 13 11 13 11 12 11 11 11 10 10 11 12 11 11 12 11 12 12 12 13 13 10 9 9 9 9 10 11 11 12 11 12 11 10 7 8 8 7 8 9 7 4 5 8 9 8 4 5 7 8 6 6 6 7 7 7 9 7 6 6 7 8 7 7 8 7 6 7 7
14 14 15 16 14 14 15 15 14 14 13 14 13 12 12 13 13 12 12 12 10 10 12 12 12 12 13 12 12 11 12 12 13 13 12 13 13 13 10 10 10 11 11 10 11 12 12 11 11 12 10 9 8 8 9 10 8 4 6 6 5 5 10 5 3 2 4 6 7 8 7 7 7 6 6 7 7 7 7 7 8 7 7 7 6
15 14 15 15 12 17 17 16 14 15 14 14 14 12 9 10 12 11 11 11 11 10 10 12 13 11 11 12 13 13 14 14 13 14 13 13 13 12 11 11 10 11 11 11 11 11 11 10 11 11 12 10 9 7 8 9 11 10 8 7 7 7 7 8 3 7 4 4 7 8 7 8 6 6 6 7 7 7 7 7 7 7 7 6 7
14 15 15 16 16 15 16 16 14 14 14 15 15 13 11 11 12 13 13 12 13 13 14 14 12 13 14 12 13 14 14 14 13 13 13 12 13 13 13 11 10 10 10 10 11 10 11 11 10 10 11 13 10 8 8 9 10 12 13 11 9 9 8 2 2 6 1 4 2 5 7 7 6 6 6 7 7 7 7 7 7 7 7 7 7
15 13 14 16 17 14 15 16 15 14 13 14 15 13 13 12 15 15 13 12 12 12 11 9 10 10 9 11 11 11 13 12 13 13 13 14 13 12 13 13 11 10 9 10 11 11 10 10 9 11 11 9 11 11 10 8 8 10 12 14 13 12 11 8 8 3 8 3 4 5 7 7 6 6 7 8 8 8 8 7 7 8 7 7 7
13 12 14 14 17 17 16 16 13 13 12 12 15 14 14 13 14 14 12 12 13 12 10 10 9 9 10 10 9 9 11 12 13 13 13 14 13 13 13 13 13 12 10 11 11 10 9 9 11 12 11 11 12 12 11 9 10 9 10 12 13 13 13 13 11 10 9 11 8 3 4 5 5 6 8 8 8 9 9 8 8 8 7 7 8
11 13 14 13 14 15 15 14 14 13 12 15 14 16 14 13 14 13 13 12 12 11 8 8 9 9 10 9 10 9 9 11 12 13 13 13 13 13 14 13 13 13 12 12 11 12 13 11 12 12 12 12 12 12 12 11 10 11 9 9 10 11 10 11 10 9 9 8 9 8 7 4 5 7 7 8 9 9 9 9 8 8 7 8 8
12 11 11 10 10 11 13 14 15 13 13 15 15 16 16 14 13 14 15 13 11 10 9 9 8 9 11 11 10 9 8 9 11 13 14 15 15 14 13 14 14 13 12 13 13 13 12 13 13 13 13 14 12 12 13 11 10 10 10 9 8 8 9 9 9 8 8 10 10 7 9 11 12 7 7 8 10 10 9 8 8 8 8 8 8
9 11 11 12 12 12 13 15 17 13 14 15 16 17 16 16 15 15 16 15 13 12 10 10 9 10 10 10 10 9 9 10 10 12 15 14 14 14 14 14 13 12 12 13 12 12 12 12 12 14 13 15 12 13 11 12 11 11 11 10 9 8 7 8 7 7 8 8 8 10 10 10 11 12 10 8 9 9 9 8 8 9 9 9 9
Wind_Direction
149 143 131 112 170 132 125 134 125 134 129 128 125 126 123 120 114 108 107 105 101 98 98 105 106 102 99 100 102 106 102 97 96 93 88 88 90 97 97 92 87 83 83 86 89 89 85 85 82 81 79 77 76 73 73 74 73 72 72 70 67 64 61 58 52 49 54 58 65 73 70 73 74 74 72 70 66 56 39 27 50 59 56 52 47
151 143 136 133 147 135 130 127 127 154 133 134 128 124 124 118 116 107 108 106 103 101 101 99 106 101 105 104 103 102 99 95 90 89 91 91 96 97 93 90 84 80 81 82 83 85 85 82 80 79 77 75 73 75 76 74 73 73 73 71 66 64 60 56 49 45 43 48 54 63 78 73 69 70 71 68 60 52 38 41 34 54 56 58 48
140 144 138 130 156 147 133 129 134 140 133 132 128 126 123 120 114 114 111 107 102 103 103 101 94 96 96 89 96 100 98 94 90 83 83 88 91 102 96 91 89 89 85 85 88 89 87 87 83 80 77 75 75 76 77 77 76 73 72 69 65 63 59 52 48 45 41 40 35 84 87 77 71 70 68 65 62 58 51 49 41 48 50 43 39
143 142 142 133 184 166 137 125 127 135 136 132 131 128 121 115 116 116 110 109 107 108 103 101 100 100 102 111 108 96 91 89 87 87 89 99 105 101 99 94 93 90 88 86 85 88 88 86 85 82 78 76 77 78 79 79 79 76 73 69 65 62 57 52 47 43 37 21 349 79 74 76 76 67 65 59 56 48 31 31 47 47 48 43 38
140 145 142 145 150 151 136 119 125 129 132 134 131 130 122 119 115 113 112 112 115 110 114 113 111 110 109 116 109 101 101 99 97 103 108 109 113 107 98 99 89 85 86 90 93 91 88 86 86 86 83 79 78 81 83 81 79 79 77 75 70 63 58 51 45 42 33 11 337 73 78 80 78 66 61 60 57 48 39 31 26 40 41 34 37
142 146 148 147 141 134 121 127 127 131 131 129 131 129 124 121 122 119 115 113 108 114 120 119 112 112 118 113 96 98 101 103 107 98 101 103 106 109 105 92 92 90 86 87 89 88 88 88 88 87 85 82 80 83 84 82 79 78 77 73 66 60 55 49 43 29 3 321 61 70 71 68 70 72 63 51 47 51 42 37 33 30 35 32 34
144 147 148 144 141 133 124 132 135 129 133 139 139 133 128 129 124 122 118 122 129 132 121 120 122 126 131 114 108 115 110 106 106 106 102 102 95 100 103 98 96 91 88 87 87 90 89 87 86 88 87 84 83 84 86 85 83 79 74 66 62 59 55 47 41 27 333 53 58 66 67 65 62 70 47 52 42 38 31 31 33 33 36 37 29
139 149 150 147 143 133 134 143 148 142 133 123 122 134 136 138 131 128 117 120 128 113 130 129 131 128 123 120 121 115 109 107 102 102 112 106 107 108 105 102 98 95 94 92 90 88 91 92 92 88 87 86 84 86 86 87 84 79 70 64 61 57 52 44 30 3 347 62 61 57 67 70 63 57 56 36 39 34 29 32 36 41 39 36 39
152 150 149 147 135 132 136 138 142 151 147 135 131 126 120 124 134 127 123 121 122 128 120 133 135 132 126 119 113 113 110 103 103 109 105 90 98 101 105 105 100 96 90 88 89 90 90 91 91 91 90 87 86 85 84 84 84 77 70 66 59 54 47 41 27 333 69 57 57 59 48 49 55 61 63 35 42 43 40 28 40 43 45 32 43
152 152 151 151 144 134 142 144 146 149 145 145 145 142 131 132 130 133 125 124 118 122 125 144 144 139 133 129 130 121 108 105 103 99 101 111 107 106 105 105 100 96 94 91 91 92 92 92 92 93 89 87 88 87 87 85 81 75 71 67 60 51 42 30 356 46 50 58 61 52 41 357 45 28 53 54 47 53 43 36 40 35 37 45 49
155 153 155 149 144 138 142 144 150 146 146 148 154 162 145 144 137 141 127 126 126 120 129 139 147 145 137 135 132 120 115 107 109 118 112 107 111 113 110 104 99 97 96 97 96 96 97 95 92 87 88 90 89 90 88 86 79 74 71 66 61 51 36 4 333 56 54 53 47 50 50 6 40 48 12 70 57 62 48 39 44 57 57 60 60
162 156 154 144 130 141 141 146 147 142 141 150 159 158 145 148 151 144 141 137 147 132 133 147 144 150 141 136 129 126 117 114 117 112 109 113 109 105 109 108 104 96 89 93 100 100 101 99 96 93 92 92 92 91 89 84 78 73 72 67 60 51 30 356 38 44 44 46 43 22 31 35 27 32 1 29 40 50 49 42 45 55 60 62 65
161 158 153 145 154 142 149 152 153 150 151 150 145 133 136 151 155 143 138 142 154 128 130 142 142 146 135 134 129 127 125 124 121 118 117 113 111 115 106 103 102 103 104 103 100 102 102 99 97 98 94 92 89 87 86 83 80 75 73 71 64 55 42 4 40 39 37 35 34 27 27 37 28 18 9 12 42 51 40 38 42 52 58 63 68
160 161 156 155 150 148 148 147 151 157 157 148 149 145 155 169 166 144 144 149 153 127 130 135 144 147 140 136 132 131 130 125 120 114 113 115 113 110 111 115 112 108 105 100 101 104 101 100 99 98 97 91 88 85 81 81 77 76 71 68 57 29 330 93 35 42 42 31 26 17 18 43 19 17 13 1 33 52 47 45 45 54 65 68 74
163 165 157 159 150 158 144 143 137 127 130 135 145 149 154 172 165 133 106 108 128 135 128 136 145 143 139 138 136 132 125 122 120 119 118 116 120 118 112 109 109 111 110 107 104 102 102 102 100 100 96 92 87 82 77 74 75 73 72 65 57 24 348 18 28 31 39 31 20 3 18 21 14 13 13 11 3 60 47 49 52 64 70 78 80
169 168 164 164 158 154 162 137 125 126 117 109 106 122 119 104 120 125 128 125 121 137 129 127 138 141 138 142 140 134 129 124 123 124 121 123 126 120 122 117 114 110 106 106 102 99 99 101 101 99 96 93 86 80 74 71 70 69 71 64 51 31 8 319 42 21 34 19 14 3 7 28 357 6 15 19 8 45 48 57 59 73 80 84 83
169 174 171 167 167 164 163 166 134 122 114 111 111 103 104 115 124 124 132 129 133 138 150 145 137 137 141 138 132 134 128 126 129 129 137 133 124 124 126 123 116 114 113 111 108 100 96 97 96 95 94 90 86 79 77 73 69 70 67 69 51 55 4 311 43 34 15 14 360 2 16 13 346 353 27 15 19 42 48 60 69 82 95 91 86
178 183 179 173 173 175 167 162 149 160 153 133 113 105 119 132 136 134 136 135 123 90 91 93 101 101 106 134 135 131 129 128 125 105 94 92 88 99 114 117 116 109 99 100 101 102 98 93 92 90 85 82 78 77 72 68 65 65 67 54 46 33 356 287 36 28 17 12 18 1 15 360 337 342 30 18 25 47 51 60 80 98 101 93 93
184 194 182 180 180 178 176 167 170 167 165 171 171 132 138 134 132 128 113 117 112 110 106 104 106 105 102 104 100 96 93 102 104 109 108 102 95 97 95 123 117 112 99 98 103 94 87 85 85 82 77 75 74 72 66 60 53 45 43 45 29 1 243 257 36 22 24 28 12 9 15 341 340 337 14 30 18 43 52 67 84 103 100 99 102
188 194 196 187 186 180 183 179 174 174 177 172 167 169 143 141 132 126 127 128 126 120 116 111 105 102 105 110 110 119 118 105 109 112 100 109 109 121 99 120 126 118 108 103 98 93 91 87 86 78 72 69 67 72 67 63 65 53 32 18 326 255 335 24 5 25 18 28 353 18 7 340 340 343 357 23 28 41 60 81 110 112 108 103 105
194 195 200 195 187 190 191 188 183 179 172 174 175 173 151 146 138 134 140 139 132 126 117 118 118 117 124 119 141 169 159 146 162 137 116 96 75 91 100 100 129 115 103 98 87 83 90 87 81 67 64 61 65 95 85 80 73 82 75 247 253 277 31 21 16 23 15 8 342 23 357 336 339 331 321 20 30 46 69 96 115 118 111 110 111
193 192 200 201 191 195 195 193 190 186 178 179 179 177 165 180 183 173 169 149 139 136 151 164 154 153 128 158 180 171 176 176 153 135 150 141 94 42 62 86 83 82 86 70 56 56 70 72 64 57 45 40 349 200 135 122 112 100 165 250 265 31 21 8 19 18 10 4 329 12 335 335 340 339 336 38 31 57 78 117 127 118 114 117 121
195 195 196 200 198 194 196 196 196 190 190 189 184 181 179 185 187 187 174 172 161 173 183 172 185 187 185 196 190 180 194 185 173 101 102 55 86 57 70 81 87 74 76 64 42 38 43 55 54 46 27 315 240 131 47 286 147 163 206 231 1 357 4 9 1 12 15 11 350 27 311 332 342 354 9 9 85 77 107 130 126 123 120 125 131
196 198 197 198 199 199 197 201 198 194 194 199 195 191 189 188 188 189 191 192 187 192 191 187 190 192 196 206 206 186 183 179 113 138 145 170 125 86 64 87 96 80 37 169 105 55 48 89 75 4 215 234 298 250 259 237 256 298 325 316 333 358 322 330 351 343 342 341 354 351 320 327 338 356 356 356 15 127 129 137 131 129 132 135 136
198 197 203 200 200 199 198 202 201 198 198 201 201 201 196 192 189 193 190 194 199 200 202 199 196 191 197 213 203 184 185 185 179 175 200 195 200 202 193 217 222 216 90 262 273 171 234 167 198 208 241 228 244 251 269 266 258 243 278 321 314 320 321 319 319 327 324 331 43 351 308 313 330 334 350 8 331 151 149 145 144 140 140 142 142
194 202 203 199 201 204 198 198 200 202 197 211 206 201 201 203 202 201 201 205 203 207 208 207 203 195 201 211 191 188 188 192 192 199 201 202 207 213 218 226 235 245 235 258 267 289 279 235 251 253 241 241 254 262 257 276 282 274 271 289 298 311 319 325 321 311 307 317 80 325 309 304 312 329 333 338 47 236 165 156 161 151 142 149 151
200 208 204 202 198 205 203 199 198 206 201 208 212 209 208 211 209 207 207 205 209 210 213 215 215 210 213 200 205 202 204 206 202 204 211 210 214 215 216 217 230 236 252 255 253 266 272 252 246 257 249 247 245 242 239 248 263 273 265 258 282 298 309 317 307 308 299 288 123 200 292 306 317 320 323 330 333 272 218 202 190 174 160 173 170
206 207 207 204 194 202 203 203 200 200 204 194 214 217 211 211 210 198 210 208 208 212 216 220 221 219 216 215 220 218 213 213 210 210 215 211 222 220 223 222 229 238 236 254 247 238 235 244 249 244 244 238 245 244 247 238 246 250 262 257 265 281 300 317 303 304 292 271 281 183 237 277 298 303 314 323 324 310 246 229 212 190 190 177 181
210 209 208 210 200 200 203 206 206 202 203 202 211 216 215 212 205 209 212 204 211 215 217 219 222 220 215 218 217 220 219 220 216 215 213 216 220 220 218 229 230 232 230 235 241 250 250 240 236 241 243 252 245 241 241 248 252 251 257 261 257 277 285 302 304 292 283 275 278 217 200 239 257 284 302 312 317 304 282 233 214 197 184 191 196
213 210 210 212 211 203 205 205 206 203 201 197 203 208 215 212 211 211 215 203 217 218 214 218 222 220 220 216 214 220 219 222 222 221 218 221 221 221 224 230 232 229 228 235 231 239 251 240 241 242 246 248 250 250 248 257 253 255 251 257 256 269 279 293 287 285 285 270 259 257 181 237 253 269 277 296 301 302 294 300 244 208 202 196 205
212 212 210 210 210 211 209 206 205 206 205 202 202 199 212 216 213 212 211 212 214 215 216 219 221 223 224 217 220 219 223 224 226 222 223 228 226 226 228 226 230 227 226 236 225 239 245 250 250 252 244 248 252 247 251 262 261 254 243 243 253 269 274 277 282 280 273 264 261 273 215 192 231 246 264 275 292 294 286 278 267 225 199 202 192
210 212 212 211 208 210 214 208 206 204 207 207 192 201 210 215 214 212 213 213 209 212 215 217 220 224 225 222 221 223 223 225 224 224 224 224 228 227 226 220 224 225 224 233 236 233 243 251 252 261 265 261 263 255 249 259 262 259 251 242 246 261 269 274 281 276 271 268 263 268 273 202 197 233 249 266 275 283 282 269 273 259 218 208 207
212 212 211 211 213 210 213 211 208 206 208 211 208 207 211 213 212 215 215 209 208 212 215 216 220 223 224 221 222 224 221 225 223 222 218 222 224 225 224 223 230 230 228 232 235 237 243 240 240 237 245 247 252 257 242 249 257 257 249 246 252 259 269 273 274 274 271 257 255 259 267 258 218 191 228 252 252 262 273 270 275 283 217 209 217
209 211 210 212 211 212 210 213 206 207 207 212 213 211 211 210 208 214 216 210 210 211 216 219 219 221 221 222 223 224 223 226 226 221 219 221 222 227 228 228 230 230 231 229 232 235 239 233 244 240 245 248 253 253 252 254 254 251 246 241 243 258 270 270 272 272 269 268 263 256 252 262 238 239 210 202 236 245 265 278 279 280 222 211 222
205 211 211 212 210 210 205 209 210 211 194 209 209 213 208 208 204 211 215 213 213 214 216 218 219 219 218 221 222 224 224 227 225 227 222 225 228 228 230 232 231 228 236 238 242 244 243 249 247 250 259 253 253 254 255 259 262 263 259 244 241 251 263 266 270 268 264 267 264 253 238 243 243 242 220 245 188 221 245 287 293 264 227 221 222
205 204 206 210 212 211 208 214 205 212 213 211 213 214 212 210 207 204 212 213 217 217 216 216 219 218 218 221 219 222 224 225 227 226 230 228 233 235 229 228 226 229 233 239 244 248 248 248 251 255 267 262 257 255 248 254 257 261 259 251 249 245 257 268 268 265 265 265 263 251 234 233 235 244 229 245 257 198 208 243 299 268 222 225 221
203 204 202 202 209 211 211 215 213 208 214 217 214 216 215 211 211 207 211 213 217 219 219 219 218 217 217 220 219 219 223 226 225 224 228 232 233 237 235 227 221 223 233 233 246 247 249 249 254 253 258 271 268 266 261 257 256 258 259 252 248 248 252 256 257 268 267 252 250 243 237 230 225 225 226 235 237 249 184 218 217 252 259 233 228
208 208 205 201 201 203 208 212 215 216 215 211 209 213 217 214 214 215 209 215 216 218 219 216 217 217 218 220 220 218 222 224 223 221 226 232 232 232 233 225 221 221 230 236 246 247 247 251 256 250 246 252 260 261 263 262 263 265 264 258 252 247 252 254 256 256 261 257 246 240 235 230 219 220 226 225 232 236 241 191 211 225 235 239 235
209 208 208 207 203 203 202 207 209 211 214 217 209 212 217 220 220 216 215 214 215 217 218 216 213 216 219 220 221 224 225 226 222 217 222 230 229 225 229 228 223 226 229 234 242 244 246 248 250 252 247 249 263 269 272 284 281 276 268 263 257 251 253 253 255 258 255 253 254 246 230 227 227 223 222 223 221 229 232 230 212 222 223 222 239
211 211 210 208 207 205 203 201 205 210 210 213 211 213 216 218 215 215 221 214 208 209 215 219 215 218 220 222 223 226 230 226 220 215 220 227 229 222 223 222 215 222 230 236 238 237 237 242 246 250 253 249 250 263 270 271 269 271 270 269 260 259 251 249 249 253 253 251 249 238 230 224 228 227 223 220 228 223 227 230 229 230 240 209 220
211 212 211 210 208 206 202 207 201 206 207 207 210 211 212 213 213 216 218 212 207 207 213 215 220 222 220 223 226 227 228 225 219 205 208 216 225 228 222 215 213 216 237 242 237 239 240 240 246 242 249 254 249 242 254 257 265 271 266 261 263 252 255 249 253 248 243 246 241 240 235 229 227 229 222 220 224 226 229 230 232 233 234 240 204
209 210 212 211 210 209 211 209 199 203 209 209 208 209 212 212 209 214 214 216 212 207 217 217 219 221 221 225 227 229 228 225 222 216 215 217 222 224 219 218 215 235 240 242 244 244 244 242 243 251 243 249 255 238 229 208 243 252 285 292 283 280 266 241 238 243 245 237 238 241 243 235 233 230 225 221 222 228 229 233 235 234 231 227 232
207 208 211 209 208 208 212 209 204 199 206 206 207 211 211 211 209 211 211 219 224 224 223 225 221 223 223 222 222 225 227 227 222 222 226 229 232 226 223 224 222 230 233 238 238 239 239 239 237 240 244 232 246 256 237 214 260 251 269 293 285 294 256 219 226 239 229 230 233 242 240 243 242 232 228 228 229 228 232 231 235 236 236 230 229
209 209 206 208 208 211 209 208 206 204 203 203 204 206 204 205 210 218 218 221 225 224 229 230 230 226 225 221 222 222 225 224 221 220 222 226 228 231 230 234 226 224 230 237 238 238 236 235 234 235 239 254 228 238 221 228 236 227 260 225 270 297 295 281 287 243 199 222 231 240 241 244 243 237 231 235 235 237 234 231 233 238 237 238 234
207 204 200 200 204 208 207 205 206 206 206 204 200 202 194 193 209 219 226 227 231 230 224 228 224 222 223 219 220 218 220 222 223 222 222 224 227 232 231 231 229 229 227 237 240 234 229 230 230 235 231 234 245 234 211 213 228 234 244 264 255 244 237 272 318 274 183 213 221 232 239 241 238 234 234 241 242 241 239 236 232 233 232 235 235
209 207 202 204 205 207 203 203 204 207 207 205 199 195 198 196 198 210 212 215 222 221 221 219 211 213 216 219 219 216 220 223 225 225 223 224 230 229 231 230 228 229 228 230 237 237 231 227 224 228 231 233 245 252 245 207 223 235 238 244 257 277 301 339 82 278 201 233 241 225 237 234 234 234 235 241 238 239 240 243 237 232 227 224 227
212 201 202 207 207 206 202 200 201 204 204 202 194 191 200 201 201 206 210 209 213 219 216 210 202 202 200 204 209 209 213 216 225 227 226 226 230 229 229 231 231 228 225 231 235 233 231 225 227 230 235 232 234 247 246 239 219 233 235 241 250 255 260 265 264 299 284 240 221 238 237 229 227 228 236 239 239 239 236 234 232 230 227 219 220
205 195 205 206 206 205 201 202 202 202 199 194 192 192 199 201 202 206 209 213 212 218 203 201 198 194 196 203 203 204 204 214 226 227 226 229 226 230 230 229 231 232 228 230 233 231 229 228 230 235 238 238 235 239 246 239 237 243 210 234 242 247 251 256 257 258 270 280 269 206 270 255 232 237 241 240 238 237 238 233 231 227 223 217 217
198 203 206 205 206 207 206 204 204 201 199 193 194 196 200 201 202 205 212 218 220 221 209 194 192 196 207 209 209 207 200 205 221 225 224 225 224 228 229 228 229 231 230 235 234 237 236 234 231 229 231 233 234 236 240 243 239 247 235 225 229 236 238 238 243 240 246 260 264 255 257 209 216 236 237 230 237 237 236 236 233 226 220 222 216
204 205 208 208 211 208 207 205 208 203 200 198 195 198 199 203 207 209 211 215 212 216 213 204 198 201 212 212 206 203 200 201 217 225 226 226 227 224 227 228 227 229 229 232 236 235 234 234 234 234 231 234 234 233 234 240 243 247 243 245 228 228 231 237 236 229 234 233 253 258 264 269 268 242 213 225 223 230 229 230 229 227 229 231 226
199 207 208 206 207 206 207 208 210 205 202 200 195 199 200 203 211 211 211 212 207 207 208 212 205 204 211 209 205 205 203 208 211 225 226 223 223 224 225 227 227 227 227 229 231 232 232 233 234 233 233 231 232 232 230 234 240 245 245 238 242 238 226 218 220 211 223 241 244 252 258 250 255 272 263 230 216 219 219 217 226 230 228 227 225